Tampa, FL

6:52 PM EDT on April 29, 2017 (GMT -0400)
Tampa International

Weather History for KTPA - September, 2013

Change the Weather History Date:

Friday, September 13, 2013

  Actual Average Record
Temperature  
Mean Temperature 80 °F 82 °F  
Max Temperature 87 °F 89 °F 95 °F (1990)
Min Temperature 73 °F 75 °F 66 °F (1956)
Degree Days  
Heating Degree Days 0 0  
Month to date heating degree days 0 0  
Since 1 July heating degree days 0 0  
Cooling Degree Days 15 17  
Month to date cooling degree days 238 229  
Year to date cooling degree days 2875 2744  
Growing Degree Days 30 (Base 50)    
Moisture  
Dew Point 73 °F    
Average Humidity 83    
Maximum Humidity 100    
Minimum Humidity 65    
Precipitation  
Precipitation 0.53 in 0.23 in 2.15 in (1903)
Month to date precipitation 3.05 3.16  
Year to date precipitation 45.57 36.88  
Sea Level Pressure  
Sea Level Pressure 29.88 in    
Wind  
Wind Speed 3 mph (WNW)    
Max Wind Speed 16 mph    
Max Gust Speed 25 mph    
Visibility 9 miles    
Events Rain , Thunderstorm    
T = Trace of Precipitation, MM = Missing Value Source: NWS Daily Summary

Daily Weather History Graph

Daily Weather History Graph

Search for Another Location

Airport or City:

Trip Planner

Search our weather history database for the weather conditions in past years. The results will help you decide how hot, cold, wet, or windy it might be!

Date:

Astronomy

Sep. 13, 2013 Rise Set
Actual Time 7:14 AM EDT 7:36 PM EDT
Civil Twilight 6:50 AM EDT 8:00 PM EDT
Nautical Twilight 6:23 AM EDT 8:27 PM EDT
Astronomical Twilight 5:55 AM EDT 8:55 PM EDT
Moon 3:04 PM EDT (9/13) 1:04 AM EDT (9/13)
Length of Visible Light 13h 09m
Length of Day
12h 22m
First Quarter, 61% of the Moon is Illuminated
Sep 13
First Quarter
Sep 19
Full
Sep 26
Last Quarter
Oct 4
New
Oct 11
First Quarter

Hourly Weather History & Observations

Time (EDT) Temp. Heat Index Dew Point Humidity Pressure Visibility Wind Dir Wind Speed Gust Speed Precip Events Conditions
12:53 AM 75.9 °F - 73.0 °F 91% 29.93 in 10.0 mi Calm Calm - N/A   Partly Cloudy
1:53 AM 75.0 °F - 73.9 °F 96% 29.92 in 10.0 mi Calm Calm - N/A   Partly Cloudy
2:53 AM 73.9 °F - 73.0 °F 97% 29.91 in 10.0 mi Calm Calm - N/A   Partly Cloudy
3:53 AM 73.9 °F - 73.0 °F 97% 29.90 in 10.0 mi Calm Calm - N/A   Partly Cloudy
4:53 AM 73.0 °F - 73.0 °F 100% 29.90 in 10.0 mi Calm Calm - N/A   Partly Cloudy
5:53 AM 73.9 °F - 72.0 °F 93% 29.89 in 10.0 mi Calm Calm - N/A   Partly Cloudy
6:53 AM 73.9 °F - 72.0 °F 93% 29.90 in 10.0 mi Calm Calm - N/A   Partly Cloudy
7:53 AM 75.0 °F - 73.0 °F 94% 29.91 in 10.0 mi Calm Calm - N/A   Partly Cloudy
8:53 AM 77.0 °F - 73.9 °F 90% 29.92 in 10.0 mi South 3.5 mph - N/A   Partly Cloudy
9:53 AM 79.0 °F - 73.9 °F 84% 29.91 in 10.0 mi SSW 3.5 mph - N/A   Partly Cloudy
10:53 AM 81.0 °F 86.2 °F 73.9 °F 79% 29.92 in 10.0 mi Calm Calm - N/A   Partly Cloudy
11:53 AM 82.9 °F 89.4 °F 73.9 °F 74% 29.91 in 10.0 mi SW 5.8 mph - N/A   Scattered Clouds
12:53 PM 84.9 °F 93.3 °F 75.0 °F 72% 29.90 in 10.0 mi SW 5.8 mph - N/A   Mostly Cloudy
1:53 PM 86.0 °F 93.8 °F 73.9 °F 67% 29.87 in 10.0 mi WSW 9.2 mph - N/A   Mostly Cloudy
2:50 PM 84.2 °F 92.3 °F 75.2 °F 74% 29.86 in 10.0 mi WSW 6.9 mph - 0.00 in Rain , Thunderstorm Light Thunderstorms and Rain
2:53 PM 84.9 °F 93.3 °F 75.0 °F 72% 29.86 in 10.0 mi WSW 6.9 mph - 0.00 in Rain , Thunderstorm Light Thunderstorms and Rain
3:08 PM 82.4 °F 90.9 °F 77.0 °F 84% 29.86 in 1.5 mi NW 15.0 mph 19.6 mph 0.01 in Rain , Thunderstorm Light Thunderstorms and Rain
3:10 PM 80.6 °F 86.2 °F 75.2 °F 84% 29.87 in 5.0 mi NNW 11.5 mph 21.9 mph 0.04 in Rain , Thunderstorm Light Thunderstorms and Rain
3:11 PM 78.8 °F - 75.2 °F 89% 29.86 in 1.5 mi Variable 4.6 mph 21.9 mph 0.08 in Rain , Thunderstorm Light Thunderstorms and Rain
3:20 PM 77.0 °F - 69.8 °F 78% 29.86 in 2.5 mi WNW 8.1 mph 25.3 mph 0.38 in Rain , Thunderstorm Light Thunderstorms and Rain
3:43 PM 75.2 °F - 71.6 °F 89% 29.86 in 10.0 mi North 11.5 mph 19.6 mph 0.45 in Rain , Thunderstorm Light Thunderstorms and Rain
3:53 PM 75.0 °F - 71.1 °F 87% 29.86 in 10.0 mi North 12.7 mph - 0.51 in Rain , Thunderstorm Light Thunderstorms and Rain
4:23 PM 78.8 °F - 71.6 °F 78% 29.85 in 10.0 mi NNW 3.5 mph - 0.02 in   Mostly Cloudy
4:53 PM 82.9 °F 88.8 °F 73.0 °F 72% 29.84 in 10.0 mi NNW 3.5 mph - 0.02 in   Mostly Cloudy
5:53 PM 84.9 °F 91.4 °F 73.0 °F 67% 29.84 in 10.0 mi Variable 3.5 mph - N/A   Scattered Clouds
6:53 PM 84.9 °F 91.4 °F 73.0 °F 67% 29.83 in 10.0 mi Calm Calm - N/A   Scattered Clouds
7:53 PM 82.9 °F 88.8 °F 73.0 °F 72% 29.84 in 10.0 mi NNW 3.5 mph - N/A   Scattered Clouds
8:53 PM 81.0 °F 85.2 °F 72.0 °F 74% 29.86 in 10.0 mi NW 4.6 mph - N/A   Clear
9:53 PM 80.1 °F 83.8 °F 72.0 °F 76% 29.87 in 10.0 mi NNW 3.5 mph - N/A   Clear
10:53 PM 79.0 °F - 73.0 °F 82% 29.87 in 10.0 mi Calm Calm - N/A   Clear
11:53 PM 79.0 °F - 73.0 °F 82% 29.87 in 10.0 mi Calm Calm - N/A   Clear